Tracking 19415 objects as of 15-Dec-2018
HD Live streaming from Space Station
objects crossing your sky now

INTELSAT 4-F1

Track INTELSAT 4-F1 now!
INTELSAT 4-F1 is classified as:


NORAD ID: 7815
Int'l Code: 1975-042A
Perigee: 36,038.5 km
Apogee: 36,121.4 km
Inclination: 13.5 °
Period: 1,450.7 minutes
Semi major axis: 42450 km
RCS: 12.6 m2 (large)
Launch date: May 22, 1975
Source: International Telecommunications Satellite Organization (ITSO)
Launch site: AIR FORCE EASTERN TEST RANGE (AFETR)
aabbcc
Your satellite tracking list
Your tracking list is empty




NASA's NSSDC Master Catalog

Two Line Element Set (TLE):
1  7815U 75042A   18348.90271339 -.00000122  00000-0  00000+0 0  9992
2  7815  13.5399 331.0901 0009766 217.6473 142.2926  0.99259448 94816
Source of the keplerian elements: AFSPC